Terminal Aerodrome Forecast
Issued by NWS Flagstaff, AZ

Home | Current Version | Previous Version | Text Only | Print | Product List | Glossary On
Versions: 1 2 3 4 5 6 7 8 9 10 11 12 13 14 15
000
FTUS45 KFGZ 251100
TAFFLG
TAF
KFLG 251120Z 2512/2612 VRB06KT P6SM FEW120
     FM251800 23008KT P6SM BKN080
      TEMPO 2519/2523 -TSRA BKN070CB
     FM260200 VRB06KT P6SM FEW100 BKN200=

USA.gov is the U.S. government's official web portal to all federal, state and local government web resources and services.